Theta_e
322 319 317 318 318 319 320 320 321 323 324 322 323 324 323 326 326 326 327 328 329 338 342 341 338 338 337 338 340 340 338 338 341 342 341 335 335 341 343 341 342 341 342 342
322 320 321 322 322 321 321 323 322 323 324 323 322 323 323 322 324 326 326 326 327 329 339 342 339 339 339 339 340 341 342 340 341 348 345 345 345 344 343 343 343 343 343 342
322 323 325 325 323 323 321 322 323 322 322 322 322 321 322 323 326 326 327 327 328 330 333 342 341 340 340 340 341 343 344 346 347 344 350 349 349 346 345 344 344 343 343 341
323 324 325 325 325 324 322 322 323 323 323 321 323 322 322 322 324 324 326 327 328 330 334 341 343 341 341 341 342 344 349 349 351 350 352 351 351 349 346 345 344 343 342 339
319 321 322 324 323 324 322 324 323 324 322 322 322 321 323 323 324 324 326 328 331 337 338 346 347 345 347 347 351 352 353 354 355 355 353 353 352 348 345 344 343 343 340 337
319 322 322 323 324 324 324 324 322 322 321 322 323 322 323 323 325 330 331 337 338 341 343 343 344 348 348 349 350 350 351 350 350 350 354 353 351 348 346 346 344 342 340 338
322 321 322 323 323 323 322 323 321 321 322 324 324 324 324 323 329 329 329 333 333 340 346 347 348 349 349 350 351 351 352 352 352 352 351 352 350 347 346 345 343 341 340 333
323 325 324 323 321 322 323 323 321 327 325 326 324 327 328 327 329 329 329 329 331 335 343 349 349 349 348 350 351 352 352 351 349 349 348 348 347 346 346 343 342 340 333 329
324 326 326 325 324 322 323 322 321 325 326 323 323 324 329 329 330 328 328 330 330 331 334 344 345 346 348 349 349 349 350 348 346 347 345 346 346 347 345 343 341 335 330 326
326 326 326 326 324 323 321 321 320 320 325 326 326 331 330 328 329 326 326 328 330 335 336 342 344 345 346 346 346 349 350 347 345 344 344 344 343 344 344 342 338 332 330 326
325 326 325 325 325 325 322 320 321 320 323 325 327 326 329 328 328 328 328 329 328 338 339 340 345 346 345 347 349 349 348 346 345 342 342 341 340 340 339 335 331 326 324 323
326 327 329 327 325 326 324 326 324 322 324 326 326 327 327 328 327 327 328 329 330 329 335 344 345 345 346 347 348 348 347 346 344 342 339 339 338 337 336 330 325 323 323 320
323 328 331 327 324 326 327 327 328 328 327 326 327 325 325 329 330 328 329 328 328 329 334 342 344 346 346 348 348 347 346 344 342 339 337 335 334 330 326 324 323 323 321 319
324 326 331 332 329 324 325 325 325 327 329 329 328 327 326 330 328 329 329 328 328 338 338 339 345 345 346 347 347 345 344 344 341 338 335 334 330 327 325 323 324 322 320 319
320 323 324 323 324 324 324 324 323 323 324 328 327 326 325 324 326 329 328 336 340 340 341 339 346 345 346 347 346 344 344 342 339 336 333 331 328 327 324 325 324 322 320 320
325 324 325 326 325 324 324 323 323 322 322 322 322 322 322 326 331 335 336 338 338 339 339 340 346 346 346 347 345 344 342 340 338 334 332 329 328 325 326 325 323 321 321 319
324 325 325 327 325 323 322 322 322 322 321 321 321 321 321 331 332 331 332 333 336 335 338 339 341 346 345 345 345 344 342 340 336 332 330 328 327 327 326 324 321 321 320 318
322 322 323 323 321 321 320 321 321 322 322 323 324 325 334 328 325 324 325 327 329 330 335 338 338 346 345 345 345 343 341 338 335 332 330 327 328 327 325 323 321 320 317 317
318 320 319 321 321 321 321 320 320 319 323 327 330 330 329 328 325 323 322 323 323 326 335 336 338 348 346 344 342 341 337 336 334 332 328 328 327 326 323 322 319 317 316 316
319 317 319 319 321 322 321 319 321 320 326 327 325 328 326 324 324 321 320 321 321 323 330 335 338 343 343 341 341 339 337 336 333 328 328 327 326 323 321 319 316 315 310 310
321 321 320 319 319 320 320 321 323 321 329 326 321 326 324 324 322 320 319 319 320 321 322 336 333 339 341 338 337 336 333 332 329 329 328 327 325 322 319 316 314 309 311 312
319 321 321 320 321 321 321 320 326 324 321 318 320 321 321 320 319 317 317 317 318 320 322 332 334 335 337 337 335 332 330 328 328 329 328 326 323 317 314 313 309 312 313 313
318 317 317 320 322 321 320 320 318 318 318 315 315 317 316 316 315 315 316 317 319 319 320 330 333 334 336 334 334 331 329 329 328 327 328 323 315 312 311 311 309 310 312 311
315 317 314 317 317 316 315 317 315 315 314 314 314 314 314 314 314 314 314 315 319 319 319 325 331 334 334 333 332 330 330 329 327 328 322 315 312 313 310 312 311 312 313 311
312 313 314 314 314 316 316 314 314 314 314 313 313 313 313 313 313 314 314 314 317 317 318 321 331 332 333 332 332 331 330 328 328 322 312 311 314 312 311 311 311 310 309 308
310 310 311 313 313 313 314 313 314 313 313 313 312 312 313 313 314 314 314 316 316 316 318 326 330 331 331 331 331 331 329 327 323 311 311 311 309 311 310 309 308 308 308 307
Wind_Speed
15 3 7 13 12 13 9 9 8 7 14 7 4 3 7 16 21 16 22 13 21 39 41 42 42 40 37 34 33 30 31 29 28 27 26 26 24 21 20 24 23 26 25 23
6 8 13 11 10 10 10 6 8 9 12 9 10 7 7 8 16 25 21 26 22 18 36 44 45 43 41 38 36 35 32 31 32 26 28 25 19 19 22 24 27 26 25 24
8 13 12 12 6 8 7 6 7 9 12 9 8 9 11 13 21 30 28 28 23 14 7 41 47 45 41 39 38 35 33 32 31 32 23 21 15 22 28 28 28 25 23 23
8 14 12 6 5 3 4 11 9 8 5 3 5 10 16 11 12 14 27 27 24 15 9 29 45 42 40 37 36 33 30 30 30 31 24 24 23 27 33 31 27 21 20 21
11 10 10 7 7 4 7 7 7 5 7 7 9 4 12 15 16 10 11 24 10 14 13 32 37 37 33 32 28 27 30 28 27 28 31 29 27 26 27 26 22 20 19 15
10 25 8 4 3 5 6 4 7 7 2 4 13 6 14 11 6 9 11 19 17 19 27 30 31 30 25 21 18 20 22 23 25 26 27 30 25 24 25 24 21 21 18 17
10 15 17 12 3 3 5 3 4 4 2 9 7 4 15 11 4 5 8 12 8 19 28 29 27 23 19 18 20 22 25 24 21 24 24 25 21 26 24 26 23 20 19 18
6 10 4 10 8 8 4 6 5 4 4 7 6 6 7 8 6 13 14 12 13 13 24 31 27 23 21 23 23 24 22 18 19 18 18 21 20 26 25 22 20 20 17 15
2 7 12 8 3 7 4 4 7 1 5 4 5 9 7 13 18 19 27 21 4 5 13 25 25 21 24 24 23 26 19 12 16 18 19 21 23 22 22 22 21 16 17 15
5 5 5 9 6 4 6 4 4 4 2 5 6 2 3 10 9 10 15 26 26 13 15 17 16 17 15 14 22 23 15 12 13 18 20 19 20 21 22 21 18 18 20 21
7 2 8 6 4 4 4 3 3 4 4 3 2 6 6 6 7 8 5 21 19 4 9 15 17 14 16 17 22 18 16 14 14 15 21 20 22 21 19 16 17 19 18 16
0 0 3 7 13 13 8 6 6 5 6 4 4 6 5 4 10 21 18 26 27 23 11 19 17 14 14 19 20 20 16 15 14 12 17 19 20 21 18 17 17 16 14 13
5 4 4 7 7 5 6 10 7 2 2 4 3 6 7 4 5 12 12 22 26 31 20 15 21 20 20 24 23 20 17 13 13 12 16 17 17 15 14 13 13 13 11 11
4 0 2 4 10 6 10 18 17 3 2 5 5 8 8 6 6 7 4 9 13 13 21 9 22 21 22 24 25 21 18 15 15 15 17 15 15 14 12 12 11 10 11 10
5 2 4 6 11 18 13 18 20 15 9 6 9 8 7 8 6 10 13 10 23 24 23 20 12 23 23 25 25 21 16 17 18 16 15 13 14 13 12 10 10 11 10 12
7 3 2 5 9 13 20 14 16 19 16 11 12 12 8 18 18 28 25 24 26 27 26 28 12 26 25 24 24 20 15 16 17 17 14 13 12 12 10 10 10 10 11 13
5 4 5 3 6 13 9 7 10 12 14 10 10 13 12 12 21 24 25 27 23 27 27 27 23 10 22 24 22 21 19 18 16 16 13 13 10 8 9 8 9 8 13 17
3 3 2 3 7 9 7 7 11 10 14 10 9 7 17 21 26 32 32 30 30 31 27 29 30 12 21 23 24 20 19 15 15 15 13 11 7 8 8 9 8 12 16 16
11 4 2 2 4 15 12 15 8 10 10 14 9 13 18 8 23 30 29 26 29 32 24 25 25 6 13 18 13 19 20 16 12 12 12 8 9 7 8 10 11 11 15 19
7 7 5 3 4 5 6 18 25 21 1 14 17 14 17 23 7 5 24 21 24 30 31 22 23 12 10 10 16 19 16 11 8 10 9 9 10 5 8 9 13 16 16 13
2 3 9 8 6 6 5 20 18 5 4 11 17 15 19 7 10 18 22 24 23 28 31 21 19 16 9 8 17 15 14 7 10 13 12 13 11 9 10 12 12 13 9 14
3 3 4 4 7 11 15 11 6 8 30 29 8 14 14 14 16 21 23 25 28 30 33 15 15 14 7 6 8 10 8 12 13 11 12 10 10 8 7 9 9 7 14 15
4 6 4 6 6 11 19 3 22 21 18 23 24 21 17 15 16 17 20 22 25 25 25 21 18 10 4 3 8 9 12 13 10 11 12 9 5 2 6 5 8 10 10 15
8 11 3 6 6 15 23 11 15 12 12 17 20 20 19 20 18 17 18 18 23 23 24 22 18 9 5 9 10 12 14 11 9 11 9 5 2 1 8 11 13 12 13 16
5 13 6 10 13 17 14 27 23 22 19 21 23 20 20 21 21 21 20 19 20 25 28 26 20 15 11 12 12 14 14 11 11 9 5 3 3 4 8 11 10 11 13 12
11 7 7 11 20 22 21 26 26 23 19 19 21 22 23 21 21 18 18 19 21 25 27 25 20 18 13 13 14 16 15 11 8 7 5 1 1 4 7 8 12 13 10 10
Wind_Direction
252 195 234 240 227 234 259 285 306 318 322 21 307 307 318 324 309 294 300 284 229 197 202 197 194 198 201 209 207 208 209 215 216 224 223 224 224 218 219 225 233 239 247 260
284 236 239 243 272 277 276 335 326 321 315 355 328 318 309 287 276 280 272 277 275 252 210 200 194 198 202 206 213 209 212 214 221 223 230 234 243 227 230 231 230 235 248 259
225 263 262 223 304 343 333 329 314 289 301 324 351 326 301 275 254 260 257 257 259 246 191 199 195 197 202 205 211 213 215 216 220 228 227 227 220 219 223 227 230 237 252 257
249 267 283 262 249 284 295 291 300 308 8 297 12 304 293 278 296 227 242 249 242 220 192 187 191 195 201 204 207 212 213 216 213 221 222 219 215 220 222 228 229 236 256 268
261 275 290 241 254 237 238 294 304 318 343 8 296 332 286 303 311 237 238 232 190 114 162 171 177 185 188 191 193 203 208 212 212 211 222 225 225 226 227 226 235 249 262 252
269 288 283 312 299 344 297 285 320 345 33 312 267 183 288 277 246 59 74 81 97 150 162 172 182 182 182 195 221 232 231 224 230 233 226 231 227 222 225 237 244 254 259 258
278 259 260 247 239 302 319 53 331 333 2 247 301 289 237 271 298 121 141 160 148 154 171 173 179 183 190 198 208 220 229 232 234 242 238 228 219 230 228 234 236 248 252 251
276 317 265 198 187 186 265 162 164 259 286 290 333 297 306 277 35 68 98 121 152 178 169 171 169 182 196 197 206 221 225 226 238 226 219 219 221 212 226 221 231 246 249 258
297 291 348 28 97 123 282 295 229 212 292 359 273 304 58 22 28 12 16 6 46 230 153 172 184 190 194 198 218 229 218 245 235 219 211 213 214 218 220 221 235 233 230 238
10 329 15 330 6 265 169 231 352 347 273 276 306 315 248 15 357 4 358 349 10 114 134 151 176 194 197 210 213 209 224 246 236 232 212 211 216 227 231 235 233 224 239 250
30 121 297 350 289 275 349 247 263 153 162 182 261 277 208 17 10 335 32 276 334 138 171 192 184 174 173 208 202 210 216 228 234 237 220 219 225 221 223 229 234 241 246 262
169 241 317 278 299 308 291 266 190 141 268 235 182 271 287 16 90 54 32 5 356 5 345 180 172 193 181 198 204 216 210 218 239 248 220 216 219 230 231 233 237 245 260 266
329 345 350 326 307 15 348 343 333 284 113 209 194 265 293 111 32 56 14 335 343 332 5 195 193 200 190 194 203 211 220 220 234 236 216 217 233 232 229 233 246 261 274 282
100 175 171 222 286 324 318 317 319 353 22 290 259 268 290 329 342 351 344 325 323 28 11 356 208 203 192 197 199 200 202 227 231 226 219 235 240 238 239 242 255 273 282 287
117 202 302 300 312 316 309 308 308 310 297 257 262 293 294 297 283 268 288 52 41 29 18 9 227 206 197 199 201 198 209 222 231 228 226 244 241 243 240 250 266 276 285 284
350 264 303 301 298 283 290 289 282 293 298 299 310 305 294 308 12 59 44 46 36 21 10 9 4 208 192 196 201 195 205 222 225 233 229 249 253 241 239 256 274 279 288 291
342 11 14 269 309 321 299 258 276 277 280 275 278 272 261 61 60 47 38 35 32 20 9 1 1 225 197 199 213 211 207 214 216 223 227 248 236 238 256 278 293 289 283 289
246 352 339 288 352 273 248 317 303 300 304 325 329 12 93 91 69 42 28 21 16 12 5 359 353 345 210 211 212 208 204 201 216 225 240 225 239 262 267 274 277 284 293 304
189 166 279 254 233 283 305 287 332 332 334 13 26 48 40 65 55 34 16 9 8 11 3 349 360 357 207 250 236 200 190 192 203 238 213 206 241 260 265 271 286 275 290 302
172 166 165 250 271 272 350 326 333 323 213 7 17 50 47 40 54 338 16 355 356 4 5 352 355 342 295 269 219 202 188 209 227 196 176 207 212 236 231 253 274 296 313 346
201 193 202 225 238 267 332 340 324 3 293 24 15 49 52 51 33 10 6 359 351 353 0 347 349 341 332 199 190 193 184 173 161 167 193 211 234 245 279 287 308 342 1 345
236 216 220 233 228 262 18 1 26 353 340 343 55 43 44 32 9 1 354 353 347 343 354 336 330 347 332 302 208 194 168 158 170 187 202 222 244 258 258 292 324 359 341 343
289 243 230 204 210 276 303 349 315 350 358 354 12 16 21 17 5 355 349 338 336 325 350 334 317 330 316 218 225 193 180 188 192 203 224 237 238 276 326 4 359 346 333 320
334 10 346 349 355 333 323 9 17 343 357 335 349 348 347 348 344 339 331 327 324 317 319 330 294 287 226 210 211 208 194 197 212 227 224 217 202 331 16 3 358 340 313 308
298 325 302 280 297 303 306 325 327 326 321 323 321 325 321 318 318 319 318 316 314 315 314 328 269 267 234 225 219 204 207 205 225 213 187 193 251 14 30 5 353 345 320 315
264 256 278 279 302 298 299 315 313 311 317 314 313 310 310 308 303 303 307 313 307 310 314 322 253 253 236 222 218 203 202 208 205 171 176 50 36 13 19 7 340 329 330 322